849  
ASUS41 KGYX 252310  
RWRGYX  
WEATHER ROUNDUP FOR MAINE AND NEW HAMPSHIRE  
NATIONAL WEATHER SERVICE GRAY ME  
600 PM EST SAT JAN 25 2020  
 
MEZ002-005-006-010-012-015-018-020-021-024-026-027-029-260000-  
MAINE  
 
CITY SKY/WX TMP DP RH WIND PRES REMARKS
 
PORTLAND CLOUDY 39 35 86 E21G31 30.10F  
SANFORD CLOUDY 39 38 96 E10G20 30.06F  
BAR HARBOR CLOUDY 35 31 85 E9 30.22F  
WISCASSET CLOUDY 38 33 82 E10G21 30.14F  
ROCKLAND CLOUDY 38 34 85 E17G24 30.16F  
FRYEBURG CLOUDY 34 32 92 NE7 30.10F FOG  
LEWISTONAUBURN CLOUDY 35 34 96 E10 30.11F  
AUGUSTA CLOUDY 35 32 88 E10G23 30.14F  
WATERVILLE CLOUDY 35 31 85 VRB3 30.13F  
BANGOR CLOUDY 35 29 78 E8 30.21F  
GREENVILLE N/A 30 27 88 E15 30.09F WCI 19  
MILLINOCKET CLOUDY 32 28 85 CALM 30.23F  
HOULTON CLOUDY 27 25 92 VRB6 30.23F FOG  
PRESQUE ISLE FLURRIES 28 25 88 SE5 30.23F  
FRENCHVILLE CLOUDY 27 24 89 SE13 30.18F WCI 16  
CARIBOU CLOUDY 28 24 85 SE8 30.21F  

 
 
NHZ002-005-008-009-011-012-014-260000-  
NEW HAMPSHIRE  
 
CITY SKY/WX TMP DP RH WIND PRES REMARKS
 
PORTSMOUTH LGT RAIN 41 39 93 E14G22 30.01F FOG  
ROCHESTER CLOUDY 39 36 89 E12G23 30.03F  
NASHUA LGT RAIN 40 40 100 E8G21 29.98F  
MANCHESTER LGT RAIN 40 38 93 E13G23 29.96F FOG  
CONCORD CLOUDY 37 35 92 E15G25 29.99F  
LACONIA MIX PCPN 35 35 100 NE14 30.03F FOG  
PLYMOUTH CLOUDY 36 32 87 E13G18 30.01F  
BERLIN CLOUDY 34 29 82 E12 30.04F HAZE  
WHITEFIELD CLOUDY 37 30 75 SE5 29.97S  
JAFFREY MIX PCPN 37 36 96 NE8 29.89F FOG  
KEENE LGT RAIN 40 37 89 CALM 29.90F  
LEBANON CLOUDY 38 33 82 VRB6 29.94F  
MT WASHINGTON FOG 18 18 100 SE56G66 N/A VSB 1/16WCI -7  

 
 
VTZ005-007-008-260000-  
VERMONT  
 
CITY SKY/WX TMP DP RH WIND PRES REMARKS
 
ST JOHNSBURY N/A 38 30 73 MISG 29.93F  
MONTPELIER CLOUDY 33 30 88 CALM 29.96F  
BURLINGTON LGT RAIN 37 33 85 E5 29.91S  

 
 
MAZ007-012-024-CTZ003-RIZ002-NYZ038-NYZ072-260000-  
SOUTHERN NEW ENGLAND AND NY  
 
CITY SKY/WX TMP DP RH WIND PRES REMARKS
 
BOSTON LGT RAIN 45 40 82 E16 29.95F  
WORCESTER LGT RAIN 39 38 96 E10G25 29.86F VSB 1/4  
NANTUCKET LGT RAIN 47 45 93 E23G33 29.92F FOG  
PROVIDENCE LGT RAIN 45 45 100 E16G25 29.85F FOG  
HARTFORD RAIN 42 40 92 N8 29.80F FOG  
ALBANY RAIN 39 36 89 N7 29.84F FOG  
NEW YORK CITY CLOUDY 44 41 89 NE9 29.75R  

 
 
ANZ081-ANZ082-ANZ150-NHZ014-MEZ023>029-260000-  
COASTAL MARINE OBSERVATIONS  
 
STATION/POSITION TIME TEMP WIND PRES WAVE
 
AIR SEA DIR/SP/G HT/PER  
(UTC) (F) (DEG/KT/KT) (MB) (FT/S)  
MOUNT DESERT ROC 2300 80/ 25/ 29 1021.6F  
ISLE OF SHOALS 2300 43 90/ 25/ 27 1015.6F  
JEFFREYS LEDGE 2238 45 N/A 7/ 6  
GEORGES BANK BUO 2250 44 1019.0F 8/10  

 
   
............KEY...........
 
 
WCI - WIND CHILL  
TC - TEMPERATURE IN CELSIUS  
VSB - VISIBILITY
IN MILES  
HX - HEAT INDEX  
FAIR- INDICATES FEW OR NO CLOUDS BELOW 12,000 FT, WITH NO  
SIGNIFICANT WEATHER AND/OR S TO VISIBILITY.  
 
 
 
CLICK HERE TO GO TO PREVIOUS BULLETINS.

The Nexlab ME Page
The Nexlab NH Page Main Text Page